Wetterdaten: Freitag, 05.08.2011
Datum Zeit Temp. a Sch. Temp. a Son. Temp. a Bod. Feuchte a. Luftdruck Regen Wind Richtung Richtung Sonnenschein Helligkeit Taupunkt Windchill
05.08.2011 00:03 19,0 C 20,2 C 19,9 C 80 % 1014 hPa 0,0 l/m 0,0 m/s (0 Bft) SO 140 0 min 0 lux 15,5 C 19,0 C
05.08.2011 00:08 19,0 C 20,1 C 19,9 C 80 % 1014 hPa 0,0 l/m 0,0 m/s (0 Bft) SO 140 0 min 0 lux 15,5 C 19,0 C
05.08.2011 00:13 18,9 C 20,1 C 19,7 C 81 % 1014 hPa 0,0 l/m 0,0 m/s (0 Bft) SO 140 0 min 0 lux 15,6 C 18,9 C
05.08.2011 00:17 18,8 C 20,1 C 19,8 C 82 % 1014 hPa 0,0 l/m 0,0 m/s (0 Bft) SO 140 0 min 0 lux 15,7 C 18,8 C
05.08.2011 00:22 18,7 C 20,0 C 19,7 C 81 % 1014 hPa 0,0 l/m 0,0 m/s (0 Bft) SO 140 0 min 0 lux 15,4 C 18,7 C
05.08.2011 00:27 18,7 C 19,9 C 19,7 C 82 % 1014 hPa 0,0 l/m 0,0 m/s (0 Bft) SO 140 0 min 0 lux 15,6 C 18,7 C
05.08.2011 00:32 18,6 C 19,9 C 19,7 C 83 % 1014 hPa 0,0 l/m 0,0 m/s (0 Bft) SO 140 0 min 0 lux 15,7 C 18,6 C
05.08.2011 00:37 18,6 C 19,8 C 19,6 C 83 % 1014 hPa 0,0 l/m 0,0 m/s (0 Bft) SO 140 0 min 0 lux 15,7 C 18,6 C
05.08.2011 00:43 18,5 C 19,8 C 19,5 C 84 % 1014 hPa 0,0 l/m 0,0 m/s (0 Bft) SO 140 0 min 0 lux 15,7 C 18,5 C
05.08.2011 00:48 18,5 C 19,7 C 19,4 C 84 % 1014 hPa 0,0 l/m 0,0 m/s (0 Bft) SO 140 0 min 0 lux 15,7 C 18,5 C
05.08.2011 00:53 18,4 C 19,7 C 19,4 C 84 % 1014 hPa 0,0 l/m 0,0 m/s (0 Bft) SO 140 0 min 0 lux 15,6 C 18,4 C
05.08.2011 00:58 18,4 C 19,6 C 19,3 C 85 % 1014 hPa 0,0 l/m 0,0 m/s (0 Bft) W-SW67.5 245 0 min 0 lux 15,8 C 18,4 C
05.08.2011 01:03 18,4 C 19,6 C 19,3 C 85 % 1014 hPa 0,0 l/m 0,0 m/s (0 Bft) W-SW67.5 245 0 min 0 lux 15,8 C 18,4 C
05.08.2011 01:07 18,5 C 19,6 C 19,3 C 86 % 1014 hPa 0,0 l/m 0,0 m/s (0 Bft) W 275 0 min 0 lux 16,1 C 18,5 C
05.08.2011 01:12 18,5 C 19,6 C 19,2 C 86 % 1014 hPa 0,0 l/m 0,0 m/s (0 Bft) W 275 0 min 0 lux 16,1 C 18,5 C
05.08.2011 01:17 18,4 C 19,6 C 19,3 C 86 % 1014 hPa 0,0 l/m 0,0 m/s (0 Bft) W 275 0 min 0 lux 16,0 C 18,4 C
05.08.2011 01:22 18,4 C 19,5 C 19,2 C 87 % 1014 hPa 0,0 l/m 0,0 m/s (0 Bft) W 275 0 min 0 lux 16,2 C 18,4 C
05.08.2011 01:28 18,4 C 19,5 C 19,2 C 87 % 1014 hPa 0,0 l/m 0,0 m/s (0 Bft) W 275 0 min 0 lux 16,2 C 18,4 C
05.08.2011 01:33 18,3 C 19,5 C 19,2 C 88 % 1014 hPa 0,0 l/m 0,0 m/s (0 Bft) W 275 0 min 0 lux 16,3 C 18,3 C
05.08.2011 01:38 18,3 C 19,5 C 19,1 C 88 % 1014 hPa 0,0 l/m 0,0 m/s (0 Bft) W 275 0 min 0 lux 16,3 C 18,3 C
05.08.2011 01:43 18,1 C 19,4 C 19,1 C 89 % 1014 hPa 0,0 l/m 0,0 m/s (0 Bft) W 275 0 min 0 lux 16,3 C 18,1 C
05.08.2011 01:48 18,0 C 19,3 C 19,0 C 88 % 1014 hPa 0,0 l/m 0,0 m/s (0 Bft) W 280 0 min 0 lux 16,0 C 18,0 C
05.08.2011 01:53 18,0 C 19,3 C 19,0 C 88 % 1014 hPa 0,0 l/m 0,0 m/s (0 Bft) W 280 0 min 0 lux 16,0 C 18,0 C
05.08.2011 01:58 18,0 C 19,3 C 19,0 C 88 % 1014 hPa 0,0 l/m 0,0 m/s (0 Bft) W 280 0 min 0 lux 16,0 C 18,0 C
05.08.2011 02:03 18,0 C 19,2 C 19,0 C 89 % 1014 hPa 0,0 l/m 0,0 m/s (0 Bft) W 280 0 min 0 lux 16,2 C 18,0 C
05.08.2011 02:08 18,0 C 19,2 C 19,0 C 89 % 1014 hPa 0,0 l/m 0,0 m/s (0 Bft) W 275 0 min 0 lux 16,2 C 18,0 C
05.08.2011 02:13 18,0 C 19,1 C 18,9 C 89 % 1014 hPa 0,0 l/m 0,0 m/s (0 Bft) W 275 0 min 0 lux 16,2 C 18,0 C
05.08.2011 02:18 18,0 C 19,1 C 18,9 C 89 % 1014 hPa 0,0 l/m 0,0 m/s (0 Bft) W 275 0 min 0 lux 16,2 C 18,0 C
05.08.2011 02:23 18,0 C 19,1 C 18,9 C 89 % 1014 hPa 0,0 l/m 0,0 m/s (0 Bft) W 275 0 min 0 lux 16,2 C 18,0 C
05.08.2011 02:28 18,0 C 19,0 C 18,7 C 90 % 1014 hPa 0,4 l/m 0,0 m/s (0 Bft) W 275 0 min 0 lux 16,3 C 18,0 C
05.08.2011 02:33 18,0 C 19,0 C 18,8 C 90 % 1014 hPa 0,0 l/m 0,0 m/s (0 Bft) W 280 0 min 0 lux 16,3 C 18,0 C
05.08.2011 02:38 17,8 C 19,0 C 18,7 C 90 % 1014 hPa 0,0 l/m 0,0 m/s (0 Bft) SW45 220 0 min 0 lux 16,1 C 17,8 C
05.08.2011 02:43 17,8 C 18,9 C 18,5 C 90 % 1014 hPa 0,4 l/m 0,0 m/s (0 Bft) S-SW 210 0 min 0 lux 16,1 C 17,8 C
05.08.2011 02:48 17,7 C 19,0 C 18,5 C 89 % 1014 hPa 0,0 l/m 0,0 m/s (0 Bft) S-SW 210 0 min 0 lux 15,9 C 17,7 C
05.08.2011 02:53 17,6 C 18,9 C 18,6 C 90 % 1014 hPa 0,0 l/m 0,0 m/s (0 Bft) S-SW 210 0 min 0 lux 15,9 C 17,6 C
05.08.2011 02:58 17,6 C 18,9 C 18,5 C 90 % 1014 hPa 0,0 l/m 0,0 m/s (0 Bft) S-SW 205 0 min 0 lux 15,9 C 17,6 C
05.08.2011 03:03 17,6 C 18,9 C 18,5 C 91 % 1014 hPa 0,0 l/m 0,0 m/s (0 Bft) S-SW 205 0 min 0 lux 16,1 C 17,6 C
05.08.2011 03:08 17,4 C 18,8 C 18,5 C 91 % 1014 hPa 0,0 l/m 0,0 m/s (0 Bft) S-SW 205 0 min 0 lux 15,9 C 17,4 C
05.08.2011 03:13 17,5 C 18,8 C 18,5 C 91 % 1014 hPa 0,0 l/m 0,0 m/s (0 Bft) S-SW 205 0 min 0 lux 16,0 C 17,5 C
05.08.2011 03:18 17,4 C 18,7 C 18,5 C 92 % 1014 hPa 0,0 l/m 0,0 m/s (0 Bft) SW 215 0 min 0 lux 16,1 C 17,4 C
05.08.2011 03:23 17,4 C 18,6 C 18,3 C 91 % 1014 hPa 0,0 l/m 0,0 m/s (0 Bft) S-SW 210 0 min 0 lux 15,9 C 17,4 C
05.08.2011 03:28 17,4 C 18,6 C 18,3 C 91 % 1014 hPa 0,0 l/m 0,0 m/s (0 Bft) S-SW 210 0 min 0 lux 15,9 C 17,4 C
05.08.2011 03:33 17,3 C 18,6 C 18,3 C 91 % 1014 hPa 0,0 l/m 0,0 m/s (0 Bft) S-SW 210 0 min 0 lux 15,8 C 17,3 C
05.08.2011 03:38 17,4 C 18,6 C 18,3 C 91 % 1014 hPa 0,0 l/m 0,0 m/s (0 Bft) S-SW 210 0 min 0 lux 15,9 C 17,4 C
05.08.2011 03:43 17,4 C 18,5 C 18,3 C 91 % 1014 hPa 0,0 l/m 0,0 m/s (0 Bft) S-SW 210 0 min 0 lux 15,9 C 17,4 C
05.08.2011 03:48 17,4 C 18,6 C 18,3 C 91 % 1014 hPa 0,0 l/m 0,0 m/s (0 Bft) S-SW 210 0 min 0 lux 15,9 C 17,4 C
05.08.2011 03:53 17,4 C 18,5 C 18,3 C 92 % 1014 hPa 0,0 l/m 0,0 m/s (0 Bft) S-SW 210 0 min 0 lux 16,1 C 17,4 C
05.08.2011 03:58 17,3 C 18,5 C 18,2 C 92 % 1014 hPa 0,0 l/m 0,0 m/s (0 Bft) S-SW 210 0 min 0 lux 16,0 C 17,3 C
05.08.2011 04:03 17,3 C 18,5 C 18,2 C 92 % 1014 hPa 0,0 l/m 0,0 m/s (0 Bft) S-SW 210 0 min 0 lux 16,0 C 17,3 C
05.08.2011 04:08 17,3 C 18,5 C 18,1 C 91 % 1014 hPa 0,0 l/m 0,0 m/s (0 Bft) W 275 0 min 0 lux 15,8 C 17,3 C
05.08.2011 04:13 17,3 C 18,5 C 18,2 C 91 % 1014 hPa 0,0 l/m 0,2 m/s (0 Bft) W22.5 270 0 min 0 lux 15,8 C 17,3 C
05.08.2011 04:18 17,3 C 18,4 C 18,0 C 91 % 1014 hPa 0,0 l/m 0,0 m/s (0 Bft) W 265 0 min 0 lux 15,8 C 17,3 C
05.08.2011 04:23 17,3 C 18,4 C 18,1 C 91 % 1014 hPa 0,0 l/m 0,1 m/s (0 Bft) W 270 0 min 0 lux 15,8 C 17,3 C
05.08.2011 04:28 17,3 C 18,3 C 18,1 C 91 % 1014 hPa 0,0 l/m 0,1 m/s (0 Bft) W22.5 270 0 min 0 lux 15,8 C 17,3 C
05.08.2011 04:33 17,2 C 18,3 C 18,0 C 91 % 1014 hPa 0,0 l/m 0,0 m/s (0 Bft) W 265 0 min 0 lux 15,7 C 17,2 C
05.08.2011 04:38 17,3 C 18,4 C 18,0 C 91 % 1014 hPa 0,0 l/m 0,0 m/s (0 Bft) W 265 0 min 0 lux 15,8 C 17,3 C
05.08.2011 04:43 17,2 C 18,3 C 17,9 C 91 % 1014 hPa 0,0 l/m 0,0 m/s (0 Bft) W 265 0 min 0 lux 15,7 C 17,2 C
05.08.2011 04:47 17,2 C 18,3 C 18,0 C 91 % 1014 hPa 0,0 l/m 0,0 m/s (0 Bft) W22.5 265 0 min 0 lux 15,7 C 17,2 C
05.08.2011 04:52 17,2 C 18,3 C 17,8 C 91 % 1014 hPa 0,0 l/m 1,3 m/s (1 Bft) W-SW22.5 250 0 min 0 lux 15,7 C 17,2 C
05.08.2011 04:57 17,2 C 18,3 C 17,8 C 91 % 1014 hPa 0,0 l/m 1,4 m/s (1 Bft) W-SW 250 0 min 0 lux 15,7 C 17,2 C
05.08.2011 05:02 17,2 C 18,3 C 17,8 C 91 % 1014 hPa 0,0 l/m 1,4 m/s (1 Bft) W-SW 250 0 min 0 lux 15,7 C 17,2 C
05.08.2011 05:07 17,2 C 18,2 C 17,9 C 92 % 1014 hPa 0,0 l/m 0,5 m/s (1 Bft) W-SW45 240 0 min 0 lux 15,9 C 17,2 C
05.08.2011 05:12 17,2 C 18,2 C 17,9 C 92 % 1014 hPa 0,0 l/m 0,4 m/s (1 Bft) SW22.5 235 0 min 0 lux 15,9 C 17,2 C
05.08.2011 05:17 17,2 C 18,2 C 17,8 C 92 % 1014 hPa 0,0 l/m 1,4 m/s (1 Bft) W-SW22.5 250 0 min 0 lux 15,9 C 17,2 C
05.08.2011 05:22 17,2 C 18,2 C 17,7 C 92 % 1014 hPa 0,0 l/m 1,6 m/s (2 Bft) W-SW 240 0 min 0 lux 15,9 C 17,2 C
05.08.2011 05:27 17,2 C 18,2 C 17,9 C 92 % 1014 hPa 0,0 l/m 0,0 m/s (0 Bft) W-SW 240 0 min 0 lux 15,9 C 17,2 C
05.08.2011 05:32 17,2 C 18,1 C 17,9 C 91 % 1014 hPa 0,0 l/m 0,0 m/s (0 Bft) W-SW 240 0 min 0 lux 15,7 C 17,2 C
05.08.2011 05:37 17,2 C 18,1 C 17,8 C 91 % 1014 hPa 0,0 l/m 0,0 m/s (0 Bft) SW 235 0 min 0 lux 15,7 C 17,2 C
05.08.2011 05:42 17,2 C 18,1 C 17,8 C 91 % 1014 hPa 0,0 l/m 0,1 m/s (0 Bft) SW 235 0 min 0 lux 15,7 C 17,2 C
05.08.2011 05:47 17,3 C 18,1 C 17,7 C 91 % 1014 hPa 0,0 l/m 0,2 m/s (0 Bft) W-SW 240 0 min 30 lux 15,8 C 17,3 C
05.08.2011 05:52 17,2 C 18,1 C 17,8 C 91 % 1014 hPa 0,0 l/m 0,0 m/s (0 Bft) SW 235 0 min 67 lux 15,7 C 17,2 C
05.08.2011 05:57 17,2 C 18,1 C 17,8 C 91 % 1014 hPa 0,0 l/m 0,0 m/s (0 Bft) SW 235 0 min 88 lux 15,7 C 17,2 C
05.08.2011 06:02 17,3 C 18,1 C 17,8 C 91 % 1014 hPa 0,0 l/m 0,0 m/s (0 Bft) SW 235 0 min 88 lux 15,8 C 17,3 C
05.08.2011 06:07 17,2 C 18,1 C 17,7 C 91 % 1014 hPa 0,0 l/m 0,0 m/s (0 Bft) SW 235 0 min 530 lux 15,7 C 17,2 C
05.08.2011 06:12 17,2 C 18,1 C 17,7 C 91 % 1014 hPa 0,0 l/m 0,0 m/s (0 Bft) SW 230 0 min 770 lux 15,7 C 17,2 C
05.08.2011 06:17 17,1 C 18,1 C 17,7 C 92 % 1014 hPa 0,0 l/m 0,0 m/s (0 Bft) SW 235 0 min 860 lux 15,8 C 17,1 C
05.08.2011 06:22 17,1 C 18,0 C 17,7 C 92 % 1014 hPa 0,0 l/m 0,0 m/s (0 Bft) SW 235 0 min 1,00 klux 15,8 C 17,1 C
05.08.2011 06:27 17,2 C 18,1 C 17,8 C 92 % 1014 hPa 0,0 l/m 0,0 m/s (0 Bft) SW 235 0 min 1,14 klux 15,9 C 17,2 C
05.08.2011 06:32 17,1 C 18,1 C 17,8 C 92 % 1014 hPa 0,0 l/m 0,0 m/s (0 Bft) SW 235 0 min 1,81 klux 15,8 C 17,1 C
05.08.2011 06:37 17,2 C 18,2 C 17,8 C 92 % 1014 hPa 0,0 l/m 0,0 m/s (0 Bft) SW 235 0 min 2,38 klux 15,9 C 17,2 C
05.08.2011 06:42 17,2 C 18,2 C 17,8 C 92 % 1014 hPa 0,0 l/m 0,0 m/s (0 Bft) SW 235 0 min 2,02 klux 15,9 C 17,2 C
05.08.2011 06:47 17,2 C 18,2 C 17,8 C 92 % 1014 hPa 0,0 l/m 1,2 m/s (1 Bft) SW 235 0 min 2,12 klux 15,9 C 17,2 C
05.08.2011 06:52 17,3 C 18,2 C 17,8 C 92 % 1014 hPa 0,0 l/m 1,6 m/s (1 Bft) SW 235 0 min 2,92 klux 16,0 C 17,3 C
05.08.2011 06:57 17,3 C 18,2 C 17,8 C 92 % 1014 hPa 0,0 l/m 1,4 m/s (1 Bft) SW22.5 230 0 min 2,41 klux 16,0 C 17,3 C
05.08.2011 07:02 17,4 C 18,2 C 17,7 C 92 % 1014 hPa 0,0 l/m 0,4 m/s (1 Bft) SW 230 0 min 3,65 klux 16,1 C 17,4 C
05.08.2011 07:07 17,4 C 18,2 C 17,9 C 91 % 1014 hPa 0,0 l/m 0,2 m/s (0 Bft) SW 230 0 min 3,94 klux 15,9 C 17,4 C
05.08.2011 07:12 17,5 C 18,2 C 17,9 C 91 % 1014 hPa 0,0 l/m 0,1 m/s (0 Bft) SW 235 0 min 3,29 klux 16,0 C 17,5 C
05.08.2011 07:18 17,5 C 18,2 C 17,9 C 91 % 1014 hPa 0,0 l/m 1,0 m/s (1 Bft) SW 235 0 min 4,15 klux 16,0 C 17,5 C
05.08.2011 07:23 17,6 C 18,2 C 17,9 C 91 % 1014 hPa 0,0 l/m 1,6 m/s (1 Bft) SW22.5 230 0 min 4,77 klux 16,1 C 17,6 C
05.08.2011 07:28 17,6 C 18,3 C 18,0 C 91 % 1014 hPa 0,0 l/m 0,2 m/s (0 Bft) SW 230 0 min 8,66 klux 16,1 C 17,6 C
05.08.2011 07:33 17,9 C 18,4 C 18,1 C 91 % 1014 hPa 0,0 l/m 0,1 m/s (0 Bft) SW 230 0 min 9,8 klux 16,4 C 17,9 C
05.08.2011 07:38 18,0 C 18,5 C 18,1 C 91 % 1014 hPa 0,0 l/m 1,7 m/s (2 Bft) SW22.5 230 0 min 9,6 klux 16,5 C 18,0 C
05.08.2011 07:43 18,2 C 18,5 C 18,3 C 90 % 1014 hPa 0,0 l/m 0,4 m/s (1 Bft) SW 225 0 min 13,6 klux 16,5 C 18,2 C
05.08.2011 07:48 18,4 C 18,6 C 18,3 C 89 % 1014 hPa 0,0 l/m 0,4 m/s (1 Bft) SW22.5 230 0 min 13,6 klux 16,6 C 18,4 C
05.08.2011 07:53 18,4 C 18,6 C 18,3 C 89 % 1014 hPa 0,0 l/m 0,3 m/s (1 Bft) SW22.5 215 0 min 11,8 klux 16,6 C 18,4 C
05.08.2011 07:58 18,4 C 18,7 C 18,4 C 89 % 1014 hPa 0,0 l/m 0,2 m/s (0 Bft) SW 230 0 min 10,6 klux 16,6 C 18,4 C
05.08.2011 08:03 18,4 C 18,9 C 18,4 C 89 % 1014 hPa 0,0 l/m 1,6 m/s (1 Bft) SW45 225 0 min 10,5 klux 16,6 C 18,4 C
05.08.2011 08:08 18,4 C 18,9 C 18,3 C 89 % 1014 hPa 0,0 l/m 0,4 m/s (1 Bft) SW45 230 0 min 6,03 klux 16,6 C 18,4 C
05.08.2011 08:13 18,4 C 18,9 C 18,3 C 89 % 1014 hPa 0,0 l/m 0,4 m/s (1 Bft) SW22.5 215 0 min 6,44 klux 16,6 C 18,4 C
05.08.2011 08:18 18,3 C 18,9 C 18,3 C 89 % 1014 hPa 0,0 l/m 2,1 m/s (2 Bft) SW67.5 225 0 min 5,74 klux 16,5 C 17,8 C
05.08.2011 08:23 18,2 C 18,9 C 18,4 C 89 % 1014 hPa 0,0 l/m 0,6 m/s (1 Bft) SW 225 0 min 5,97 klux 16,4 C 18,2 C
05.08.2011 08:28 18,2 C 18,9 C 18,4 C 89 % 1014 hPa 0,0 l/m 2,0 m/s (2 Bft) SW22.5 225 0 min 9,1 klux 16,4 C 17,9 C
05.08.2011 08:33 18,4 C 18,9 C 18,7 C 89 % 1014 hPa 0,0 l/m 0,3 m/s (1 Bft) S-SW 210 0 min 15,7 klux 16,6 C 18,4 C
05.08.2011 08:38 18,7 C 19,1 C 18,8 C 89 % 1014 hPa 0,0 l/m 0,0 m/s (0 Bft) S-SW 205 0 min 18,3 klux 16,8 C 18,7 C
05.08.2011 08:43 18,8 C 19,3 C 18,9 C 88 % 1014 hPa 0,0 l/m 0,1 m/s (0 Bft) S-SW22.5 210 0 min 21,3 klux 16,8 C 18,8 C
05.08.2011 08:48 19,0 C 19,4 C 18,7 C 87 % 1014 hPa 0,0 l/m 2,1 m/s (2 Bft) SW45 235 0 min 19,4 klux 16,8 C 18,5 C
05.08.2011 08:53 19,5 C 19,5 C 19,0 C 86 % 1014 hPa 0,0 l/m 1,7 m/s (2 Bft) SW 225 0 min 30,5 klux 17,1 C 19,5 C
05.08.2011 08:58 19,6 C 19,6 C 19,3 C 86 % 1014 hPa 0,0 l/m 1,6 m/s (2 Bft) SW22.5 215 0 min 34,5 klux 17,2 C 19,6 C
05.08.2011 09:03 19,8 C 19,8 C 19,5 C 85 % 1014 hPa 0,0 l/m 1,6 m/s (1 Bft) SW67.5 235 0 min 21,4 klux 17,2 C 19,8 C
05.08.2011 09:08 20,0 C 20,0 C 19,5 C 83 % 1014 hPa 0,0 l/m 2,3 m/s (2 Bft) SW45 230 0 min 19,4 klux 17,0 C 19,2 C
05.08.2011 09:13 20,1 C 20,2 C 19,9 C 83 % 1014 hPa 0,0 l/m 2,3 m/s (2 Bft) W-SW45 245 0 min 33,4 klux 17,1 C 19,3 C
05.08.2011 09:18 20,3 C 20,2 C 20,0 C 81 % 1014 hPa 0,0 l/m 3,1 m/s (2 Bft) W-SW45 240 0 min 35,3 klux 16,9 C 18,6 C
05.08.2011 09:23 20,7 C 20,6 C 20,2 C 80 % 1014 hPa 0,0 l/m 2,2 m/s (2 Bft) SW67.5 230 0 min 32,1 klux 17,1 C 20,1 C
05.08.2011 09:28 20,7 C 20,8 C 20,1 C 79 % 1014 hPa 0,0 l/m 2,9 m/s (2 Bft) W-SW67.5 240 0 min 29,6 klux 16,9 C 19,3 C
05.08.2011 09:33 20,6 C 20,9 C 20,4 C 80 % 1014 hPa 0,0 l/m 3,1 m/s (2 Bft) W45 265 0 min 28,4 klux 17,0 C 19,0 C
05.08.2011 09:38 20,7 C 20,9 C 20,4 C 80 % 1014 hPa 0,0 l/m 3,1 m/s (2 Bft) W-SW45 250 0 min 29,6 klux 17,1 C 19,1 C
05.08.2011 09:43 20,9 C 21,2 C 20,7 C 80 % 1014 hPa 0,0 l/m 1,1 m/s (1 Bft) S67.5 190 0 min 30,3 klux 17,3 C 20,9 C
05.08.2011 09:48 21,1 C 21,3 C 21,0 C 80 % 1014 hPa 0,0 l/m 1,9 m/s (2 Bft) SW45 230 0 min 34,9 klux 17,5 C 20,9 C
05.08.2011 09:53 21,4 C 21,5 C 21,0 C 79 % 1014 hPa 0,0 l/m 0,3 m/s (0 Bft) SW45 225 0 min 31,7 klux 17,6 C 21,4 C
05.08.2011 09:58 21,6 C 21,7 C 21,0 C 79 % 1014 hPa 0,0 l/m 2,0 m/s (2 Bft) SW67.5 215 0 min 29,1 klux 17,8 C 21,3 C
05.08.2011 10:03 21,4 C 21,8 C 21,8 C 78 % 1014 hPa 0,0 l/m 2,8 m/s (2 Bft) SW67.5 230 0 min 45,4 klux 17,4 C 20,2 C
05.08.2011 10:08 21,8 C 21,9 C 21,8 C 77 % 1014 hPa 0,0 l/m 1,9 m/s (2 Bft) W-SW67.5 255 5 min 56,1 klux 17,6 C 21,6 C
05.08.2011 10:13 22,0 C 22,2 C 21,7 C 76 % 1014 hPa 0,0 l/m 3,0 m/s (2 Bft) SW67.5 230 0 min 37,6 klux 17,6 C 20,6 C
05.08.2011 10:18 22,6 C 22,6 C 21,5 C 75 % 1014 hPa 0,0 l/m 0,6 m/s (1 Bft) SW67.5 225 5 min 83,0 klux 17,9 C 22,6 C
05.08.2011 10:23 23,0 C 23,1 C 22,6 C 75 % 1014 hPa 0,0 l/m 2,6 m/s (2 Bft) W-SW67.5 250 5 min 64,2 klux 18,3 C 22,1 C
05.08.2011 10:28 23,4 C 23,3 C 22,9 C 73 % 1014 hPa 0,0 l/m 2,7 m/s (2 Bft) SW67.5 235 5 min 53,3 klux 18,3 C 22,5 C
05.08.2011 10:33 23,6 C 23,9 C 23,7 C 71 % 1014 hPa 0,0 l/m 0,5 m/s (1 Bft) W-SW67.5 250 5 min 67,8 klux 18,0 C 23,6 C
05.08.2011 10:38 23,5 C 24,3 C 23,6 C 71 % 1014 hPa 0,0 l/m 2,2 m/s (2 Bft) W45 280 5 min 90,8 klux 17,9 C 23,1 C
05.08.2011 10:43 23,5 C 24,6 C 23,7 C 71 % 1014 hPa 0,0 l/m 0,4 m/s (1 Bft) W45 280 0 min 50,3 klux 17,9 C 23,5 C
05.08.2011 10:48 23,6 C 24,8 C 23,6 C 70 % 1014 hPa 0,0 l/m 0,4 m/s (1 Bft) SW67.5 230 5 min 101 klux 17,8 C 23,6 C
05.08.2011 10:53 23,7 C 25,0 C 24,5 C 70 % 1014 hPa 0,0 l/m 0,7 m/s (1 Bft) W67.5 265 5 min 57,4 klux 17,9 C 23,7 C
05.08.2011 10:58 24,0 C 25,4 C 23,8 C 70 % 1014 hPa 0,0 l/m 3,5 m/s (3 Bft) W67.5 260 5 min 102 klux 18,2 C 22,5 C
05.08.2011 11:03 23,1 C 25,2 C 23,5 C 69 % 1014 hPa 0,0 l/m 4,7 m/s (3 Bft) W-NW45 295 0 min 23,2 klux 17,1 C 20,7 C
05.08.2011 11:08 22,6 C 24,6 C 23,0 C 72 % 1014 hPa 0,0 l/m 3,9 m/s (3 Bft) W-NW45 290 0 min 19,6 klux 17,3 C 20,6 C
05.08.2011 11:13 22,0 C 24,1 C 22,9 C 73 % 1014 hPa 0,0 l/m 4,4 m/s (3 Bft) W-NW45 300 0 min 29,8 klux 16,9 C 19,5 C
05.08.2011 11:18 22,0 C 24,2 C 23,6 C 73 % 1014 hPa 0,0 l/m 0,7 m/s (1 Bft) W45 275 5 min 74,9 klux 16,9 C 22,0 C
05.08.2011 11:22 22,3 C 24,3 C 23,5 C 73 % 1014 hPa 0,0 l/m 0,7 m/s (1 Bft) W-NW67.5 300 0 min 29,0 klux 17,2 C 22,3 C
05.08.2011 11:27 22,4 C 24,1 C 23,5 C 73 % 1014 hPa 0,0 l/m 0,4 m/s (1 Bft) SW67.5 220 0 min 23,1 klux 17,3 C 22,4 C
05.08.2011 11:32 22,5 C 24,1 C 24,2 C 72 % 1014 hPa 0,0 l/m 4,0 m/s (3 Bft) W-NW67.5 285 0 min 47,5 klux 17,2 C 20,4 C
05.08.2011 11:37 23,2 C 24,0 C 24,5 C 71 % 1014 hPa 0,0 l/m 0,6 m/s (1 Bft) W67.5 265 5 min 72,3 klux 17,6 C 23,2 C
05.08.2011 11:42 23,5 C 24,6 C 25,3 C 70 % 1014 hPa 0,0 l/m 3,1 m/s (2 Bft) W-NW67.5 295 5 min 90,8 klux 17,7 C 22,3 C
05.08.2011 11:47 24,2 C 25,1 C 25,3 C 68 % 1014 hPa 0,0 l/m 1,4 m/s (1 Bft) W-SW67.5 250 5 min 70,7 klux 17,9 C 24,2 C
05.08.2011 11:53 23,8 C 25,1 C 24,1 C 68 % 1014 hPa 0,0 l/m 3,8 m/s (3 Bft) W-NW67.5 300 0 min 32,0 klux 17,5 C 22,1 C
05.08.2011 11:58 23,8 C 25,0 C 23,8 C 68 % 1014 hPa 0,0 l/m 4,9 m/s (3 Bft) W-NW45 295 0 min 21,3 klux 17,5 C 21,4 C
05.08.2011 12:03 22,8 C 24,4 C 24,0 C 70 % 1014 hPa 0,0 l/m 4,9 m/s (3 Bft) NW45 315 0 min 26,3 klux 17,0 C 20,2 C
05.08.2011 12:08 22,7 C 24,2 C 23,8 C 71 % 1014 hPa 0,0 l/m 4,3 m/s (3 Bft) W-NW67.5 300 0 min 22,6 klux 17,2 C 20,4 C
05.08.2011 12:13 22,6 C 24,0 C 24,0 C 71 % 1014 hPa 0,0 l/m 4,3 m/s (3 Bft) W-NW67.5 295 0 min 37,7 klux 17,1 C 20,3 C
05.08.2011 12:18 22,8 C 23,9 C 24,6 C 71 % 1014 hPa 0,0 l/m 4,4 m/s (3 Bft) W-NW67.5 290 0 min 32,9 klux 17,3 C 20,5 C
05.08.2011 12:22 23,0 C 23,8 C 24,2 C 70 % 1014 hPa 0,0 l/m 4,8 m/s (3 Bft) W67.5 270 0 min 32,1 klux 17,2 C 20,5 C
05.08.2011 12:27 23,1 C 23,7 C 24,4 C 70 % 1014 hPa 0,0 l/m 3,8 m/s (3 Bft) NW45 305 0 min 35,0 klux 17,3 C 21,3 C
05.08.2011 12:32 23,2 C 23,8 C 24,7 C 70 % 1014 hPa 0,0 l/m 0,1 m/s (0 Bft) SW45 215 0 min 42,5 klux 17,4 C 23,2 C
05.08.2011 12:37 23,4 C 24,2 C 24,9 C 69 % 1014 hPa 0,0 l/m 0,8 m/s (1 Bft) W45 280 0 min 40,7 klux 17,4 C 23,4 C
05.08.2011 12:43 23,3 C 24,1 C 24,5 C 69 % 1014 hPa 0,0 l/m 3,5 m/s (3 Bft) W45 275 0 min 37,4 klux 17,3 C 21,7 C
05.08.2011 12:48 23,4 C 24,2 C 24,8 C 69 % 1014 hPa 0,0 l/m 2,9 m/s (2 Bft) W67.5 275 0 min 41,3 klux 17,4 C 22,3 C
05.08.2011 12:53 23,6 C 24,4 C 25,2 C 68 % 1014 hPa 0,0 l/m 0,2 m/s (0 Bft) W-NW45 295 0 min 48,3 klux 17,3 C 23,6 C
05.08.2011 12:58 23,8 C 24,5 C 25,1 C 67 % 1014 hPa 0,0 l/m 4,4 m/s (3 Bft) W-NW67.5 300 0 min 50,0 klux 17,3 C 21,7 C
05.08.2011 13:03 24,0 C 24,8 C 25,3 C 66 % 1014 hPa 0,0 l/m 0,6 m/s (1 Bft) W67.5 270 0 min 44,7 klux 17,2 C 24,0 C
05.08.2011 13:07 24,1 C 25,0 C 25,4 C 66 % 1014 hPa 0,0 l/m 3,3 m/s (2 Bft) W-NW45 285 4 min 78,6 klux 17,3 C 22,8 C
05.08.2011 13:12 24,6 C 25,6 C 26,2 C 65 % 1014 hPa 0,0 l/m 3,3 m/s (2 Bft) W-NW67.5 290 5 min 122 klux 17,6 C 23,3 C
05.08.2011 13:17 24,5 C 26,0 C 25,3 C 64 % 1014 hPa 0,0 l/m 0,5 m/s (1 Bft) W67.5 275 0 min 33,9 klux 17,2 C 24,5 C
05.08.2011 13:22 24,1 C 26,0 C 24,9 C 65 % 1014 hPa 0,0 l/m 3,5 m/s (3 Bft) NW45 310 5 min 117 klux 17,1 C 22,6 C
05.08.2011 13:28 24,7 C 26,0 C 27,0 C 64 % 1014 hPa 0,0 l/m 3,5 m/s (3 Bft) NW45 310 6 min 117 klux 17,4 C 23,3 C
05.08.2011 13:33 25,5 C 27,4 C 27,6 C 64 % 1014 hPa 0,0 l/m 5,0 m/s (3 Bft) NW67.5 315 5 min 107 klux 18,2 C 23,5 C
05.08.2011 13:38 25,8 C 28,7 C 27,5 C 63 % 1014 hPa 0,0 l/m 3,8 m/s (3 Bft) W-NW67.5 295 0 min 58,2 klux 18,2 C 24,5 C
05.08.2011 13:43 26,3 C 29,3 C 27,9 C 61 % 1014 hPa 0,0 l/m 4,7 m/s (3 Bft) W-NW67.5 285 5 min 107 klux 18,2 C 24,7 C
05.08.2011 13:48 25,8 C 29,3 C 27,2 C 60 % 1014 hPa 0,0 l/m 4,4 m/s (3 Bft) NW67.5 305 0 min 55,5 klux 17,4 C 24,2 C
05.08.2011 13:53 25,9 C 29,3 C 27,3 C 61 % 1014 hPa 0,0 l/m 4,5 m/s (3 Bft) W-NW67.5 295 5 min 78,8 klux 17,8 C 24,3 C
05.08.2011 13:57 25,6 C 28,8 C 26,7 C 61 % 1014 hPa 0,0 l/m 5,7 m/s (4 Bft) W-NW45 295 0 min 38,3 klux 17,5 C 23,4 C
05.08.2011 14:02 25,4 C 28,4 C 26,9 C 60 % 1014 hPa 0,0 l/m 7,4 m/s (4 Bft) W-NW67.5 290 0 min 40,4 klux 17,1 C 22,6 C
05.08.2011 14:07 25,2 C 28,1 C 26,3 C 62 % 1014 hPa 0,0 l/m 5,2 m/s (3 Bft) W-NW67.5 295 0 min 28,5 klux 17,4 C 23,1 C
05.08.2011 14:12 25,1 C 27,6 C 26,6 C 63 % 1013 hPa 0,0 l/m 2,6 m/s (2 Bft) W45 270 0 min 32,1 klux 17,5 C 24,4 C
05.08.2011 14:18 25,3 C 27,2 C 26,5 C 63 % 1013 hPa 0,0 l/m 2,9 m/s (2 Bft) W67.5 260 0 min 33,7 klux 17,7 C 24,4 C
05.08.2011 14:23 25,6 C 27,2 C 26,5 C 62 % 1013 hPa 0,0 l/m 2,4 m/s (2 Bft) SW67.5 215 0 min 31,8 klux 17,8 C 25,1 C
05.08.2011 14:28 25,6 C 26,9 C 26,4 C 61 % 1013 hPa 0,0 l/m 0,4 m/s (1 Bft) S67.5 190 0 min 33,0 klux 17,5 C 25,6 C
05.08.2011 14:33 25,6 C 26,7 C 26,3 C 62 % 1013 hPa 0,0 l/m 2,2 m/s (2 Bft) W45 265 0 min 22,8 klux 17,8 C 25,3 C
05.08.2011 14:38 25,0 C 26,5 C 26,3 C 63 % 1013 hPa 0,0 l/m 3,2 m/s (2 Bft) W45 270 0 min 17,2 klux 17,5 C 23,9 C
05.08.2011 14:42 24,8 C 26,4 C 25,4 C 63 % 1013 hPa 0,0 l/m 2,4 m/s (2 Bft) W45 260 0 min 19,0 klux 17,3 C 24,2 C
05.08.2011 14:47 24,6 C 26,3 C 25,9 C 64 % 1013 hPa 0,0 l/m 1,9 m/s (2 Bft) W-SW67.5 245 0 min 28,2 klux 17,3 C 24,4 C
05.08.2011 14:52 24,8 C 26,3 C 26,2 C 64 % 1013 hPa 0,0 l/m 3,0 m/s (2 Bft) W67.5 270 0 min 31,2 klux 17,5 C 23,8 C
05.08.2011 14:57 25,0 C 26,3 C 26,3 C 64 % 1013 hPa 0,0 l/m 3,8 m/s (3 Bft) W-SW67.5 255 0 min 57,7 klux 17,7 C 23,5 C
05.08.2011 15:02 25,5 C 26,8 C 26,8 C 62 % 1013 hPa 0,0 l/m 3,8 m/s (3 Bft) W-NW67.5 290 5 min 79,2 klux 17,7 C 24,1 C
05.08.2011 15:07 25,9 C 27,5 C 26,9 C 62 % 1013 hPa 0,0 l/m 3,6 m/s (3 Bft) NW45 305 0 min 42,5 klux 18,0 C 24,7 C
05.08.2011 15:12 25,6 C 27,4 C 25,8 C 62 % 1013 hPa 0,0 l/m 4,0 m/s (3 Bft) W45 270 0 min 22,0 klux 17,8 C 24,1 C
05.08.2011 15:17 25,3 C 27,0 C 25,3 C 63 % 1013 hPa 0,0 l/m 1,8 m/s (2 Bft) SW67.5 235 0 min 18,6 klux 17,7 C 25,3 C
05.08.2011 15:22 24,9 C 26,6 C 25,5 C 64 % 1013 hPa 0,0 l/m 3,0 m/s (2 Bft) W45 280 0 min 18,6 klux 17,6 C 23,9 C
05.08.2011 15:27 24,7 C 26,3 C 25,6 C 64 % 1013 hPa 0,0 l/m 1,8 m/s (2 Bft) W45 265 0 min 19,3 klux 17,4 C 24,7 C
05.08.2011 15:32 24,6 C 26,2 C 24,4 C 66 % 1013 hPa 0,4 l/m 0,0 m/s (0 Bft) NW67.5 305 0 min 18,6 klux 17,8 C 24,6 C
05.08.2011 15:37 24,1 C 25,9 C 24,2 C 70 % 1013 hPa 0,0 l/m 2,3 m/s (2 Bft) W-NW67.5 285 0 min 16,6 klux 18,3 C 23,6 C
05.08.2011 15:42 23,6 C 25,6 C 24,3 C 71 % 1013 hPa 0,0 l/m 0,0 m/s (0 Bft) W45 275 0 min 17,0 klux 18,0 C 23,6 C
05.08.2011 15:47 23,5 C 25,3 C 23,9 C 71 % 1013 hPa 0,0 l/m 0,0 m/s (0 Bft) W45 270 0 min 16,6 klux 17,9 C 23,5 C
05.08.2011 15:52 23,3 C 25,2 C 23,8 C 73 % 1013 hPa 0,0 l/m 0,3 m/s (0 Bft) W22.5 270 0 min 15,1 klux 18,2 C 23,3 C
05.08.2011 15:57 23,3 C 24,9 C 23,8 C 75 % 1013 hPa 0,0 l/m 0,3 m/s (0 Bft) W22.5 270 0 min 14,2 klux 18,6 C 23,3 C
05.08.2011 16:02 23,4 C 24,8 C 23,9 C 76 % 1013 hPa 0,0 l/m 0,0 m/s (0 Bft) W-SW 240 0 min 13,5 klux 18,9 C 23,4 C
05.08.2011 16:07 23,4 C 24,6 C 23,8 C 77 % 1013 hPa 0,0 l/m 0,0 m/s (0 Bft) W-SW 240 0 min 12,3 klux 19,1 C 23,4 C
05.08.2011 16:12 23,2 C 24,3 C 23,2 C 77 % 1013 hPa 0,0 l/m 0,0 m/s (0 Bft) W-SW 240 0 min 10,5 klux 18,9 C 23,2 C
05.08.2011 16:17 22,9 C 24,1 C 23,0 C 78 % 1013 hPa 0,0 l/m 0,1 m/s (0 Bft) SW22.5 235 0 min 6,99 klux 18,9 C 22,9 C
05.08.2011 16:22 22,7 C 24,0 C 23,1 C 79 % 1013 hPa 0,0 l/m 0,1 m/s (0 Bft) W-SW45 240 0 min 6,18 klux 18,9 C 22,7 C
05.08.2011 16:27 22,5 C 23,7 C 23,0 C 79 % 1013 hPa 0,0 l/m 0,0 m/s (0 Bft) SW 230 0 min 6,31 klux 18,7 C 22,5 C
05.08.2011 16:32 22,4 C 23,6 C 23,0 C 79 % 1013 hPa 0,0 l/m 0,0 m/s (0 Bft) SW 230 0 min 6,29 klux 18,6 C 22,4 C
05.08.2011 16:37 22,4 C 23,5 C 22,9 C 79 % 1013 hPa 0,0 l/m 0,0 m/s (0 Bft) SW 230 0 min 5,41 klux 18,6 C 22,4 C
05.08.2011 16:43 22,1 C 23,3 C 22,7 C 80 % 1013 hPa 0,0 l/m 0,0 m/s (0 Bft) SW 230 0 min 8,00 klux 18,5 C 22,1 C
05.08.2011 16:48 22,0 C 23,2 C 22,7 C 80 % 1013 hPa 0,0 l/m 0,1 m/s (0 Bft) SW22.5 230 0 min 10,0 klux 18,4 C 22,0 C
05.08.2011 16:53 22,1 C 23,2 C 22,6 C 80 % 1013 hPa 0,0 l/m 0,3 m/s (1 Bft) SW67.5 220 0 min 14,8 klux 18,5 C 22,1 C
05.08.2011 16:58 22,0 C 23,2 C 22,4 C 77 % 1013 hPa 0,0 l/m 2,1 m/s (2 Bft) SW67.5 230 0 min 20,2 klux 17,8 C 21,7 C
05.08.2011 17:03 22,1 C 23,3 C 22,4 C 75 % 1013 hPa 0,0 l/m 0,6 m/s (1 Bft) SW67.5 225 0 min 21,7 klux 17,5 C 22,1 C
05.08.2011 17:08 22,3 C 23,6 C 23,0 C 75 % 1013 hPa 0,0 l/m 1,5 m/s (1 Bft) SW67.5 225 0 min 31,8 klux 17,6 C 22,3 C
05.08.2011 17:13 22,5 C 23,7 C 23,0 C 75 % 1013 hPa 0,0 l/m 0,0 m/s (0 Bft) O-SO45 115 0 min 30,5 klux 17,8 C 22,5 C
05.08.2011 17:18 22,8 C 24,1 C 22,9 C 75 % 1013 hPa 0,0 l/m 0,0 m/s (0 Bft) O-SO 105 0 min 39,1 klux 18,1 C 22,8 C
05.08.2011 17:23 23,5 C 26,1 C 23,6 C 73 % 1013 hPa 0,0 l/m 0,0 m/s (0 Bft) S 185 5 min 86,5 klux 18,4 C 23,5 C
05.08.2011 17:28 23,9 C 26,1 C 24,0 C 72 % 1013 hPa 0,0 l/m 0,0 m/s (0 Bft) N67.5 350 5 min 82,0 klux 18,5 C 23,9 C
05.08.2011 17:33 24,4 C 28,6 C 24,0 C 71 % 1013 hPa 0,0 l/m 0,0 m/s (0 Bft) N45 10 5 min 76,8 klux 18,8 C 24,4 C
05.08.2011 17:38 24,5 C 30,0 C 23,8 C 67 % 1013 hPa 0,0 l/m 0,1 m/s (0 Bft) NW45 320 5 min 61,0 klux 18,0 C 24,5 C
05.08.2011 17:43 24,0 C 28,9 C 23,2 C 67 % 1013 hPa 0,0 l/m 0,4 m/s (1 Bft) W45 275 0 min 17,9 klux 17,5 C 24,0 C
05.08.2011 17:48 23,3 C 28,1 C 23,1 C 69 % 1013 hPa 0,0 l/m 0,0 m/s (0 Bft) W-SW 250 0 min 11,2 klux 17,3 C 23,3 C
05.08.2011 17:53 23,0 C 27,0 C 23,0 C 69 % 1013 hPa 0,0 l/m 0,0 m/s (0 Bft) W-SW22.5 250 0 min 8,57 klux 17,0 C 23,0 C
05.08.2011 17:58 22,6 C 26,2 C 22,9 C 71 % 1013 hPa 0,0 l/m 0,0 m/s (0 Bft) W-SW45 250 0 min 8,35 klux 17,1 C 22,6 C
05.08.2011 18:03 22,3 C 25,8 C 22,8 C 71 % 1013 hPa 0,0 l/m 0,0 m/s (0 Bft) SW 225 0 min 7,66 klux 16,8 C 22,3 C
05.08.2011 18:07 22,2 C 25,2 C 22,8 C 72 % 1013 hPa 0,0 l/m 0,0 m/s (0 Bft) SW 225 0 min 8,04 klux 16,9 C 22,2 C
05.08.2011 18:12 22,0 C 24,8 C 22,7 C 74 % 1013 hPa 0,0 l/m 0,0 m/s (0 Bft) SW 220 0 min 7,43 klux 17,1 C 22,0 C
05.08.2011 18:17 21,9 C 24,6 C 22,6 C 74 % 1013 hPa 0,0 l/m 0,0 m/s (0 Bft) SW 225 0 min 5,94 klux 17,0 C 21,9 C
05.08.2011 18:23 21,8 C 24,2 C 22,7 C 74 % 1013 hPa 0,0 l/m 0,0 m/s (0 Bft) SW 225 0 min 5,39 klux 17,0 C 21,8 C
05.08.2011 18:28 21,7 C 23,9 C 22,2 C 76 % 1013 hPa 0,0 l/m 0,0 m/s (0 Bft) SW 225 0 min 5,86 klux 17,3 C 21,7 C
05.08.2011 18:33 21,5 C 23,7 C 22,2 C 74 % 1013 hPa 0,0 l/m 0,0 m/s (0 Bft) S22.5 180 0 min 6,68 klux 16,7 C 21,5 C
05.08.2011 18:38 21,4 C 23,4 C 22,2 C 75 % 1013 hPa 0,0 l/m 0,0 m/s (0 Bft) S 170 0 min 9,4 klux 16,8 C 21,4 C
05.08.2011 18:43 21,4 C 23,3 C 22,3 C 75 % 1013 hPa 0,0 l/m 0,0 m/s (0 Bft) S 170 0 min 11,8 klux 16,8 C 21,4 C
05.08.2011 18:48 21,5 C 23,3 C 22,1 C 76 % 1013 hPa 0,4 l/m 0,0 m/s (0 Bft) SW67.5 225 0 min 15,5 klux 17,1 C 21,5 C
05.08.2011 18:52 21,4 C 23,2 C 22,0 C 78 % 1013 hPa 0,4 l/m 0,0 m/s (0 Bft) W-NW22.5 290 0 min 15,4 klux 17,4 C 21,4 C
05.08.2011 18:57 21,4 C 23,2 C 22,0 C 80 % 1013 hPa 0,0 l/m 0,0 m/s (0 Bft) W 280 0 min 14,5 klux 17,8 C 21,4 C
05.08.2011 19:02 21,3 C 23,1 C 21,7 C 79 % 1013 hPa 0,0 l/m 0,0 m/s (0 Bft) W 280 0 min 14,8 klux 17,5 C 21,3 C
05.08.2011 19:07 21,3 C 22,9 C 21,4 C 81 % 1013 hPa 0,0 l/m 0,0 m/s (0 Bft) S-SO22.5 160 0 min 15,0 klux 17,9 C 21,3 C
05.08.2011 19:13 21,2 C 22,9 C 21,6 C 81 % 1013 hPa 0,0 l/m 0,0 m/s (0 Bft) S-SO22.5 155 0 min 13,3 klux 17,8 C 21,2 C
05.08.2011 19:18 21,0 C 22,7 C 21,4 C 82 % 1013 hPa 0,0 l/m 0,0 m/s (0 Bft) S-SO 150 0 min 9,4 klux 17,8 C 21,0 C
05.08.2011 19:23 20,9 C 22,6 C 21,6 C 83 % 1013 hPa 0,0 l/m 0,0 m/s (0 Bft) S-SO 150 0 min 11,7 klux 17,9 C 20,9 C
05.08.2011 19:28 20,9 C 22,5 C 21,6 C 83 % 1013 hPa 0,0 l/m 0,0 m/s (0 Bft) S-SO 150 0 min 15,2 klux 17,9 C 20,9 C
05.08.2011 19:33 21,4 C 22,6 C 21,5 C 82 % 1013 hPa 0,0 l/m 0,0 m/s (0 Bft) S-SO 150 5 min 17,9 klux 18,2 C 21,4 C
05.08.2011 19:38 21,6 C 22,9 C 21,6 C 82 % 1013 hPa 0,0 l/m 0,0 m/s (0 Bft) S-SO 150 0 min 16,2 klux 18,4 C 21,6 C
05.08.2011 19:42 22,8 C 23,0 C 21,4 C 80 % 1013 hPa 0,0 l/m 0,0 m/s (0 Bft) S-SO 150 4 min 29,9 klux 19,2 C 22,8 C
05.08.2011 19:47 24,9 C 23,9 C 21,3 C 75 % 1013 hPa 0,0 l/m 0,0 m/s (0 Bft) SO 145 5 min 27,2 klux 20,2 C 24,9 C
05.08.2011 19:52 24,9 C 24,1 C 21,3 C 75 % 1013 hPa 0,0 l/m 0,0 m/s (0 Bft) S-SO 150 5 min 21,9 klux 20,2 C 24,9 C
05.08.2011 19:57 25,9 C 23,9 C 21,1 C 70 % 1013 hPa 0,0 l/m 0,0 m/s (0 Bft) S-SO 150 5 min 18,8 klux 20,0 C 25,9 C
05.08.2011 20:03 26,0 C 23,7 C 21,1 C 69 % 1013 hPa 0,0 l/m 0,0 m/s (0 Bft) S-SO 150 6 min 16,6 klux 19,9 C 26,0 C
05.08.2011 20:08 24,4 C 23,4 C 21,0 C 70 % 1013 hPa 0,0 l/m 0,0 m/s (0 Bft) S-SO 150 5 min 11,3 klux 18,6 C 24,4 C
05.08.2011 20:13 24,4 C 23,0 C 21,0 C 70 % 1013 hPa 0,0 l/m 0,0 m/s (0 Bft) S-SO 150 0 min 7,72 klux 18,6 C 24,4 C
05.08.2011 20:18 22,8 C 22,8 C 20,8 C 74 % 1013 hPa 0,0 l/m 0,0 m/s (0 Bft) S-SO 150 5 min 8,76 klux 17,9 C 22,8 C
05.08.2011 20:23 22,2 C 22,7 C 20,7 C 75 % 1013 hPa 0,0 l/m 0,0 m/s (0 Bft) S-SO 150 5 min 9,5 klux 17,5 C 22,2 C
05.08.2011 20:28 21,9 C 22,2 C 20,7 C 77 % 1013 hPa 0,0 l/m 0,0 m/s (0 Bft) S-SO 150 0 min 4,94 klux 17,7 C 21,9 C
05.08.2011 20:32 21,1 C 22,1 C 20,6 C 79 % 1013 hPa 0,0 l/m 0,0 m/s (0 Bft) SO 145 0 min 3,92 klux 17,3 C 21,1 C
05.08.2011 20:37 20,4 C 22,1 C 20,5 C 80 % 1013 hPa 0,0 l/m 0,0 m/s (0 Bft) SO 145 0 min 3,49 klux 16,8 C 20,4 C
05.08.2011 20:42 20,2 C 21,4 C 20,4 C 81 % 1013 hPa 0,0 l/m 0,0 m/s (0 Bft) SO 145 0 min 2,75 klux 16,8 C 20,2 C
05.08.2011 20:47 19,8 C 21,1 C 20,2 C 84 % 1013 hPa 0,0 l/m 0,0 m/s (0 Bft) SO 145 0 min 2,15 klux 17,0 C 19,8 C
05.08.2011 20:53 19,6 C 21,0 C 20,2 C 84 % 1013 hPa 0,0 l/m 0,0 m/s (0 Bft) S-SW67.5 205 6 min 1,66 klux 16,8 C 19,6 C
05.08.2011 20:58 19,2 C 20,7 C 20,1 C 84 % 1013 hPa 0,0 l/m 0,0 m/s (0 Bft) SO 145 0 min 1,27 klux 16,4 C 19,2 C
05.08.2011 21:03 19,1 C 20,5 C 20,0 C 85 % 1013 hPa 0,0 l/m 0,0 m/s (0 Bft) SO 145 0 min 946 lux 16,5 C 19,1 C
05.08.2011 21:08 18,9 C 20,4 C 19,8 C 87 % 1013 hPa 0,0 l/m 0,0 m/s (0 Bft) SO 145 0 min 677 lux 16,7 C 18,9 C
05.08.2011 21:13 18,7 C 20,1 C 19,7 C 87 % 1013 hPa 0,0 l/m 0,0 m/s (0 Bft) S67.5 170 0 min 467 lux 16,5 C 18,7 C
05.08.2011 21:18 18,6 C 19,9 C 19,7 C 87 % 1013 hPa 0,0 l/m 0,0 m/s (0 Bft) S-SO 150 0 min 273 lux 16,4 C 18,6 C
05.08.2011 21:22 18,5 C 19,7 C 19,6 C 88 % 1013 hPa 0,0 l/m 0,0 m/s (0 Bft) S-SO 150 0 min 120 lux 16,5 C 18,5 C
05.08.2011 21:27 18,3 C 19,6 C 19,5 C 89 % 1013 hPa 0,0 l/m 0,0 m/s (0 Bft) S-SO 150 0 min 70 lux 16,5 C 18,3 C
05.08.2011 21:32 18,2 C 19,4 C 19,5 C 90 % 1013 hPa 0,0 l/m 0,0 m/s (0 Bft) SO 145 0 min 28 lux 16,5 C 18,2 C
05.08.2011 21:37 18,0 C 19,3 C 19,4 C 90 % 1013 hPa 0,0 l/m 0,0 m/s (0 Bft) SO 145 0 min 6 lux 16,3 C 18,0 C
05.08.2011 21:43 17,9 C 19,2 C 19,3 C 90 % 1013 hPa 0,0 l/m 0,0 m/s (0 Bft) SO 145 0 min 3 lux 16,2 C 17,9 C
05.08.2011 21:48 17,9 C 19,0 C 19,3 C 90 % 1013 hPa 0,0 l/m 0,0 m/s (0 Bft) SO 145 0 min 0 lux 16,2 C 17,9 C
05.08.2011 21:53 17,8 C 18,9 C 19,2 C 90 % 1013 hPa 0,0 l/m 0,0 m/s (0 Bft) SO 145 0 min 0 lux 16,1 C 17,8 C
05.08.2011 21:58 17,7 C 18,7 C 19,1 C 92 % 1013 hPa 0,0 l/m 0,0 m/s (0 Bft) SO 145 0 min 0 lux 16,4 C 17,7 C
05.08.2011 22:03 17,5 C 18,6 C 19,0 C 92 % 1013 hPa 0,0 l/m 0,0 m/s (0 Bft) S-SO45 150 0 min 0 lux 16,2 C 17,5 C
05.08.2011 22:07 17,4 C 18,6 C 19,0 C 93 % 1013 hPa 0,0 l/m 0,0 m/s (0 Bft) SO 145 0 min 0 lux 16,3 C 17,4 C
05.08.2011 22:12 17,4 C 18,4 C 18,9 C 92 % 1013 hPa 0,0 l/m 0,0 m/s (0 Bft) SO 145 0 min 0 lux 16,1 C 17,4 C
05.08.2011 22:17 17,2 C 18,3 C 18,7 C 92 % 1013 hPa 0,0 l/m 0,0 m/s (0 Bft) SO 145 0 min 0 lux 15,9 C 17,2 C
05.08.2011 22:22 17,2 C 18,3 C 18,7 C 92 % 1013 hPa 0,0 l/m 0,0 m/s (0 Bft) SO 145 0 min 0 lux 15,9 C 17,2 C
05.08.2011 22:28 17,2 C 18,2 C 18,7 C 92 % 1013 hPa 0,0 l/m 0,0 m/s (0 Bft) SO 145 0 min 0 lux 15,9 C 17,2 C
05.08.2011 22:33 17,1 C 18,2 C 18,5 C 92 % 1013 hPa 0,0 l/m 0,0 m/s (0 Bft) SO 145 0 min 0 lux 15,8 C 17,1 C
05.08.2011 22:38 17,0 C 18,1 C 18,6 C 92 % 1013 hPa 0,0 l/m 0,0 m/s (0 Bft) SO 145 0 min 0 lux 15,7 C 17,0 C
05.08.2011 22:43 17,0 C 18,0 C 18,5 C 92 % 1013 hPa 0,0 l/m 0,0 m/s (0 Bft) SO 145 0 min 0 lux 15,7 C 17,0 C
05.08.2011 22:48 17,0 C 18,1 C 18,6 C 92 % 1013 hPa 0,0 l/m 0,0 m/s (0 Bft) SO 140 0 min 0 lux 15,7 C 17,0 C
05.08.2011 22:53 17,1 C 18,1 C 18,5 C 92 % 1013 hPa 0,0 l/m 0,0 m/s (0 Bft) SO 140 0 min 0 lux 15,8 C 17,1 C
05.08.2011 22:57 17,1 C 18,0 C 18,5 C 92 % 1013 hPa 0,0 l/m 0,0 m/s (0 Bft) SO 140 0 min 0 lux 15,8 C 17,1 C
05.08.2011 23:02 17,2 C 18,0 C 18,5 C 92 % 1013 hPa 0,0 l/m 0,0 m/s (0 Bft) SO 140 0 min 0 lux 15,9 C 17,2 C
05.08.2011 23:07 17,2 C 18,0 C 18,5 C 92 % 1013 hPa 0,0 l/m 0,0 m/s (0 Bft) SO 140 0 min 0 lux 15,9 C 17,2 C
05.08.2011 23:12 17,2 C 18,0 C 18,4 C 93 % 1013 hPa 0,0 l/m 0,0 m/s (0 Bft) SO 140 0 min 0 lux 16,1 C 17,2 C
05.08.2011 23:18 17,0 C 18,0 C 18,4 C 93 % 1013 hPa 0,0 l/m 0,0 m/s (0 Bft) SO 140 0 min 0 lux 15,9 C 17,0 C
05.08.2011 23:23 17,0 C 17,9 C 18,3 C 93 % 1013 hPa 0,0 l/m 0,0 m/s (0 Bft) SO 140 0 min 0 lux 15,9 C 17,0 C
05.08.2011 23:28 17,0 C 17,9 C 18,3 C 93 % 1013 hPa 0,0 l/m 0,0 m/s (0 Bft) SO 140 0 min 0 lux 15,9 C 17,0 C
05.08.2011 23:33 17,0 C 17,9 C 18,2 C 93 % 1013 hPa 0,0 l/m 0,0 m/s (0 Bft) SO 140 0 min 0 lux 15,9 C 17,0 C
05.08.2011 23:38 16,9 C 17,7 C 18,2 C 93 % 1013 hPa 0,0 l/m 0,0 m/s (0 Bft) SO 140 0 min 0 lux 15,8 C 16,9 C
05.08.2011 23:43 16,9 C 17,7 C 18,1 C 93 % 1013 hPa 0,0 l/m 0,0 m/s (0 Bft) SO 140 0 min 0 lux 15,8 C 16,9 C
05.08.2011 23:47 16,8 C 17,7 C 18,0 C 93 % 1013 hPa 0,0 l/m 0,0 m/s (0 Bft) SO 140 0 min 0 lux 15,7 C 16,8 C
05.08.2011 23:52 16,6 C 17,6 C 17,9 C 93 % 1013 hPa 0,0 l/m 0,0 m/s (0 Bft) SO 140 0 min 0 lux 15,5 C 16,6 C
05.08.2011 23:57 16,6 C 17,5 C 17,9 C 93 % 1013 hPa 0,0 l/m 0,0 m/s (0 Bft) SO 140 0 min 0 lux 15,5 C 16,6 C
_ Min-Zeit 23:52 23:57 05:22 13:48 14:12 - 00:03 - - - - 00:22 23:52
Minimum _ 16,6 C 17,5 C 17,7 C 60 % 1013 hPa - 0,0 m/s (0 Bft) - - - - 15,4 C 16,6 C
_ Max-Zeit 13:43 17:38 13:43 22:07 00:03 02:28 14:02 - - 13:28 13:12 19:47 20:03
Maximum _ 26,3 C 30,0 C 27,9 C 93 % 1014 hPa 0,4 l/m 7,4 m/s
W-NW (4 Bft)
- - 6 min 122 klux 20,2 C 26,0 C
Durchschnitt _ 20,4 C 21,6 C 21,0 C 81 % 1013 hPa #1,8 l/m 0,9 m/s (1 Bft) SW - #2:56 h 17,7 klux 16,9 C 20,1 C